When you browse on this site, cookies collect data to enhance your experience and personalize the content and advertising you see.
Visit our Privacy Policy to learn more. By continuing to use the site, you agree to this use of cookies and data.
  • In United Kingdom
  • List of Countries
  • For 7 days
  • Water Temperature
  • Satellite Maps
  • Weather Map
  • Weather Widgets
  • user-avatar
    Login

    Hourly Weather Shumanay

    Today, 24 January, Thursday

    Time Temperature Precipitation Wind Pressure Humidity
    00:00 -1°C° 0 mm 2 mps 763 mmHg 85%
    01:00 -1°C° 0 mm 2 mps 763 mmHg 87%
    02:00 -1°C° 0 mm 2 mps 763 mmHg 88%
    03:00 -1°C° 0 mm 2 mps 764 mmHg 89%
    04:00 -2°C° 0 mm 3 mps 764 mmHg 90%
    05:00 -2°C° 0 mm 3 mps 764 mmHg 91%
    06:00 -2°C° 0 mm 3 mps 764 mmHg 92%
    07:00 -2°C° 0 mm 2 mps 764 mmHg 93%
    08:00 -1°C° 0 mm 3 mps 765 mmHg 89%
    09:00 0°C° 0 mm 3 mps 765 mmHg 86%
    10:00 0°C° 0 mm 3 mps 765 mmHg 83%
    11:00 +2°C° 0 mm 3 mps 765 mmHg 78%
    12:00 +3°C° 0 mm 3 mps 765 mmHg 73%
    13:00 +4°C° 0 mm 3 mps 765 mmHg 67%
    14:00 +4°C° 0 mm 3 mps 765 mmHg 67%
    15:00 +4°C° 0 mm 3 mps 765 mmHg 67%
    16:00 +4°C° 0 mm 3 mps 765 mmHg 66%
    17:00 +3°C° 0 mm 3 mps 765 mmHg 71%
    18:00 +1°C° 0 mm 4 mps 765 mmHg 76%
    19:00 -1°C° 0 mm 4 mps 765 mmHg 81%
    20:00 -1°C° 0 mm 4 mps 765 mmHg 82%
    21:00 -1°C° 0 mm 4 mps 765 mmHg 83%
    22:00 -2°C° 0 mm 4 mps 765 mmHg 84%
    23:00 -2°C° 0 mm 4 mps 764 mmHg 81%

    Tomorrow, 25 January, Friday

    Time Temperature Precipitation Wind Pressure Humidity
    00:00 -2°C° 0 mm 4 mps 764 mmHg 79%
    01:00 -2°C° 0 mm 4 mps 764 mmHg 76%
    02:00 -2°C° 0 mm 4 mps 763 mmHg 75%
    03:00 -1°C° 0 mm 4 mps 763 mmHg 74%
    04:00 -1°C° 0 mm 4 mps 762 mmHg 73%
    05:00 -1°C° 0 mm 4 mps 762 mmHg 72%
    06:00 -1°C° 0 mm 4 mps 762 mmHg 71%
    07:00 -1°C° 0 mm 4 mps 762 mmHg 70%
    08:00 0°C° 0 mm 4 mps 761 mmHg 63%
    09:00 +2°C° 0 mm 5 mps 761 mmHg 57%
    10:00 +3°C° 0 mm 5 mps 761 mmHg 51%
    11:00 +5°C° 0 mm 5 mps 761 mmHg 48%
    12:00 +7°C° 0 mm 5 mps 760 mmHg 45%
    13:00 +8°C° 0 mm 5 mps 760 mmHg 41%
    14:00 +8°C° 0 mm 5 mps 759 mmHg 42%
    15:00 +8°C° 0 mm 4 mps 759 mmHg 42%
    16:00 +8°C° 0 mm 4 mps 759 mmHg 43%
    17:00 +7°C° 0 mm 4 mps 759 mmHg 46%
    18:00 +6°C° 0 mm 4 mps 759 mmHg 49%
    19:00 +5°C° 0 mm 4 mps 759 mmHg 52%
    20:00 +4°C° 0 mm 4 mps 759 mmHg 51%
    21:00 +4°C° 0 mm 4 mps 758 mmHg 51%
    22:00 +4°C° 0 mm 4 mps 758 mmHg 51%
    23:00 +3°C° 0 mm 4 mps 758 mmHg 52%

    Day after tomorrow, 26 January, Saturday

    Time Temperature Precipitation Wind Pressure Humidity
    00:00 +3°C° 0 mm 4 mps 758 mmHg 52%
    01:00 +3°C° 0 mm 4 mps 758 mmHg 52%
    02:00 +1°C° 0 mm 4 mps 758 mmHg 53%
    03:00 +1°C° 0 mm 4 mps 758 mmHg 53%
    04:00 +1°C° 0 mm 4 mps 757 mmHg 54%
    05:00 +2°C° 0 mm 3 mps 757 mmHg 55%
    06:00 +1°C° 0 mm 3 mps 758 mmHg 55%
    07:00 +1°C° 0 mm 3 mps 758 mmHg 56%
    08:00 +2°C° 0 mm 3 mps 758 mmHg 52%
    09:00 +3°C° 0 mm 4 mps 758 mmHg 48%
    10:00 +5°C° 0 mm 4 mps 758 mmHg 44%
    11:00 +6°C° 0 mm 4 mps 758 mmHg 40%
    12:00 +7°C° 0 mm 4 mps 758 mmHg 37%
    13:00 +10°C° 0 mm 4 mps 758 mmHg 34%
    14:00 +10°C° 0 mm 3 mps 758 mmHg 34%
    15:00 +10°C° 0 mm 3 mps 757 mmHg 35%
    16:00 +10°C° 0 mm 3 mps 757 mmHg 36%
    17:00 +8°C° 0 mm 3 mps 757 mmHg 39%
    18:00 +7°C° 0 mm 2 mps 757 mmHg 43%
    19:00 +6°C° 0 mm 2 mps 757 mmHg 47%
    20:00 +6°C° 0 mm 2 mps 757 mmHg 48%
    21:00 +5°C° 0 mm 2 mps 758 mmHg 50%
    22:00 +5°C° 0 mm 2 mps 758 mmHg 51%
    23:00 +4°C° 0 mm 2 mps 758 mmHg 52%

    27 January, Sunday

    Time Temperature Precipitation Wind Pressure Humidity
    00:00 +4°C° 0 mm 2 mps 757 mmHg 53%
    01:00 +4°C° 0 mm 2 mps 757 mmHg 54%
    02:00 +4°C° 0 mm 2 mps 757 mmHg 55%
    03:00 +4°C° 0 mm 2 mps 757 mmHg 56%
    04:00 +4°C° 0 mm 2 mps 757 mmHg 57%
    05:00 +4°C° 0 mm 2 mps 757 mmHg 58%
    06:00 +4°C° 0 mm 2 mps 757 mmHg 59%
    07:00 +3°C° 0 mm 3 mps 758 mmHg 59%
    08:00 +4°C° 0 mm 3 mps 758 mmHg 57%
    09:00 +5°C° 0 mm 3 mps 758 mmHg 55%
    10:00 +7°C° 0 mm 3 mps 758 mmHg 53%
    11:00 +8°C° 0 mm 4 mps 757 mmHg 51%
    12:00 +10°C° 0 mm 4 mps 757 mmHg 48%
    13:00 +12°C° 0 mm 5 mps 757 mmHg 46%
    14:00 +12°C° 0 mm 5 mps 756 mmHg 44%
    15:00 +12°C° 0 mm 5 mps 755 mmHg 42%
    16:00 +12°C° 0 mm 5 mps 755 mmHg 40%
    17:00 +10°C° 0 mm 5 mps 755 mmHg 41%
    18:00 +9°C° 0 mm 5 mps 755 mmHg 43%
    19:00 +8°C° 0 mm 5 mps 754 mmHg 44%
    20:00 +8°C° 0 mm 5 mps 754 mmHg 45%
    21:00 +7°C° 0 mm 5 mps 754 mmHg 45%
    22:00 +7°C° 0 mm 5 mps 754 mmHg 46%
    23:00 +6°C° 0 mm 5 mps 753 mmHg 48%

    28 January, Monday

    Time Temperature Precipitation Wind Pressure Humidity
    00:00 +6°C° 0 mm 4 mps 753 mmHg 50%
    01:00 +6°C° 0 mm 4 mps 753 mmHg 53%
    02:00 +5°C° 0 mm 4 mps 753 mmHg 54%
    03:00 +5°C° 0 mm 3 mps 753 mmHg 55%
    04:00 +5°C° 0 mm 3 mps 753 mmHg 56%
    05:00 +5°C° 0 mm 3 mps 752 mmHg 56%
    06:00 +5°C° 0 mm 3 mps 752 mmHg 56%
    07:00 +5°C° 0 mm 3 mps 752 mmHg 56%
    08:00 +7°C° 0 mm 3 mps 752 mmHg 53%
    09:00 +8°C° 0 mm 3 mps 753 mmHg 50%
    10:00 +10°C° 0 mm 3 mps 753 mmHg 48%
    11:00 +11°C° 0 mm 3 mps 753 mmHg 44%
    12:00 +13°C° 0 mm 2 mps 752 mmHg 41%
    13:00 +14°C° 0 mm 2 mps 752 mmHg 38%
    14:00 +15°C° 0 mm 2 mps 752 mmHg 38%
    15:00 +15°C° 0 mm 2 mps 751 mmHg 37%
    16:00 +15°C° 0 mm 1 mps 751 mmHg 37%
    17:00 +14°C° 0 mm 2 mps 751 mmHg 39%
    18:00 +13°C° 0 mm 2 mps 751 mmHg 40%
    19:00 +12°C° 0 mm 2 mps 751 mmHg 42%
    20:00 +10°C° 0 mm 2 mps 751 mmHg 43%
    21:00 +11°C° 0 mm 1 mps 751 mmHg 43%
    22:00 +10°C° 0 mm 1 mps 751 mmHg 43%
    23:00 +10°C° 0 mm 1 mps 751 mmHg 44%

    29 January, Tuesday

    Time Temperature Precipitation Wind Pressure Humidity
    00:00 +10°C° 0 mm 1 mps 750 mmHg 45%
    01:00 +9°C° 0 mm 1 mps 750 mmHg 46%
    02:00 +9°C° 0 mm 2 mps 750 mmHg 45%
    03:00 +9°C° 0 mm 2 mps 750 mmHg 44%
    04:00 +9°C° 0 mm 3 mps 750 mmHg 43%
    05:00 +9°C° 0 mm 3 mps 750 mmHg 45%
    06:00 +8°C° 0 mm 3 mps 750 mmHg 47%
    07:00 +8°C° 0 mm 3 mps 750 mmHg 49%
    08:00 +8°C° 0.1 mm 3 mps 750 mmHg 50%
    09:00 +8°C° 0.1 mm 3 mps 750 mmHg 52%
    10:00 +8°C° 0.1 mm 3 mps 750 mmHg 53%
    11:00 +9°C° 0 mm 3 mps 749 mmHg 53%
    12:00 +10°C° 0 mm 3 mps 749 mmHg 53%
    13:00 +10°C° 0 mm 4 mps 748 mmHg 52%
    14:00 +10°C° 0 mm 4 mps 748 mmHg 51%
    15:00 +9°C° 0 mm 5 mps 748 mmHg 49%
    16:00 +9°C° 0 mm 6 mps 748 mmHg 48%
    17:00 +8°C° 0.2 mm 5 mps 748 mmHg 53%
    18:00 +7°C° 0.2 mm 5 mps 748 mmHg 58%
    19:00 +6°C° 0.2 mm 5 mps 748 mmHg 62%
    20:00 +6°C° 1.2 mm 5 mps 748 mmHg 68%
    21:00 +4°C° 1.2 mm 6 mps 748 mmHg 74%
    22:00 +3°C° 1.2 mm 7 mps 748 mmHg 80%
    23:00 +3°C° 0.3 mm 7 mps 748 mmHg 81%
    Show more